FW1511 Weather Reports


time (UTC)temp
C
wind
direction
speed
KPH
gust
KPH
rain 1hr
cm
rain 24hr
cm
rain mn
cm
humidity
%
barometer
mb
20260505050646 12 177 1.6 8.0 0.00 0.00 0.00 87 1011.3
20260505041501 12 226 1.6 11.3 0.00 0.00 0.00 86 1011.3
20260505041246 13 202 3.2 11.3 0.00 0.00 0.00 85 1010.8
20260505040346 13 203 3.2 11.3 0.00 0.00 0.00 85 1010.8
20260505040104 12 234 3.2 11.3 0.00 0.00 0.00 85 1011.3
20260505035446 13 218 3.2 11.3 0.00 0.00 0.00 85 1010.8
20260505034546 13 164 3.2 16.1 0.00 0.00 0.00 84 1010.7
20260505034501 13 223 1.6 16.1 0.00 0.00 0.00 84 1011.1
20260505033646 13 202 3.2 14.5 0.00 0.00 0.00 84 1010.5
20260505033116 13 158 4.8 12.9 0.00 0.00 0.00 84 1010.9
20260505032746 13 217 3.2 11.3 0.00 0.00 0.00 83 1010.4
20260505031846 13 137 3.2 17.7 0.00 0.00 0.00 82 1010.4
20260505031501 13 188 3.2 17.7 0.00 0.00 0.00 82 1010.7
20260505030946 14 117 3.2 19.3 0.00 0.00 0.00 81 1010.3
20260505030046 15 271 4.8 19.3 0.00 0.00 0.00 80 1010.2
20260505025147 15 236 3.2 17.7 0.00 0.00 0.00 78 1010.1
20260505024503 15 5 3.2 12.9 0.00 0.00 0.00 77 1010.5
20260505023346 16 204 3.2 17.7 0.00 0.00 0.00 74 1010.0
20260505023108 16 139 3.2 16.1 0.00 0.00 0.00 74 1010.4
20260505022446 17 238 3.2 16.1 0.00 0.00 0.00 72 1010.0
20260505021546 17 225 3.2 17.7 0.00 0.00 0.00 70 1010.0
20260505021501 17 314 3.2 17.7 0.00 0.00 0.00 69 1010.4
20260505020646 18 299 3.2 16.1 0.00 0.00 0.00 67 1009.9
20260505015746 19 270 3.2 16.1 0.00 0.00 0.00 65 1009.9
20260505014846 20 326 3.2 9.7 0.00 0.00 0.00 65 1009.7
20260505014503 20 23 3.2 9.7 0.00 0.00 0.00 64 1010.1
20260505013946 20 269 3.2 17.7 0.00 0.00 0.00 63 1009.7
20260505013047 20 236 3.2 12.9 0.00 0.00 0.00 62 1009.8
20260505013002 20 224 3.2 12.9 0.00 0.00 0.00 62 1010.2
20260505012146 21 188 3.2 17.7 0.00 0.00 0.00 60 1009.7
20260505011603 20 273 1.6 17.7 0.00 0.00 0.00 60 1010.3
20260505011247 21 251 4.8 17.7 0.00 0.00 0.00 60 1009.7
20260505010346 21 267 4.8 16.1 0.00 0.00 0.00 57 1009.8
20260505010001 21 34 4.8 17.7 0.00 0.00 0.00 56 1010.2
20260505005446 21 286 4.8 17.7 0.00 0.00 0.00 56 1009.9
20260505004602 22 120 3.2 12.9 0.00 0.00 0.00 55 1010.2
20260505004546 22 232 4.8 12.9 0.00 0.00 0.00 55 1009.7
20260505003646 22 216 4.8 17.7 0.00 0.00 0.00 54 1009.6
20260505003002 22 325 4.8 12.9 0.00 0.00 0.00 53 1009.9
20260505002746 23 191 4.8 12.9 0.00 0.00 0.00 54 1009.5
20260505001846 23 204 4.8 16.1 0.00 0.00 0.00 54 1009.5
20260505001601 22 273 4.8 16.1 0.00 0.00 0.00 53 1010.0
20260505000946 23 289 3.2 12.9 0.00 0.00 0.00 53 1009.6
20260505000002 23 333 3.2 11.3 0.00 0.00 0.00 52 1009.9
20260504235147 23 274 3.2 11.3 0.00 0.00 0.00 52 1009.4
20260504234629 23 276 1.6 12.9 0.00 0.00 0.00 51 1009.8
20260504234246 23 273 4.8 12.9 0.00 0.00 0.00 51 1009.4
20260504233346 23 226 4.8 16.1 0.00 0.00 0.00 50 1009.5
20260504233001 23 343 3.2 17.7 0.00 0.00 0.00 51 1009.8
20260504232446 24 156 4.8 17.7 0.00 0.00 0.00 50 1009.3
20260504231606 23 186 3.2 14.5 0.00 0.00 0.00 50 1009.8
20260504231546 24 167 6.4 12.9 0.00 0.00 0.00 51 1009.4
20260504230646 23 122 4.8 20.9 0.00 0.00 0.00 50 1009.5
20260504230002 23 95 3.2 16.1 0.00 0.00 0.00 50 1009.8
20260504225746 24 98 4.8 11.3 0.00 0.00 0.00 50 1009.5
20260504224608 24 19 4.8 19.3 0.00 0.00 0.00 53 1010.1
20260504223946 24 89 6.4 16.1 0.00 0.00 0.00 53 1009.7
20260504223003 24 12 4.8 12.9 0.00 0.00 0.00 53 1010.0
20260504221606 24 96 3.2 16.1 0.00 0.00 0.00 53 1010.1
20260504221246 24 92 4.8 16.1 0.00 0.00 0.00 55 1009.7
20260504220346 24 84 3.2 14.5 0.00 0.00 0.00 54 1009.9
20260504220001 24 101 3.2 11.3 0.00 0.00 0.00 53 1010.4
20260504215446 25 83 4.8 11.3 0.00 0.00 0.00 53 1010.1
20260504214605 24 79 4.8 16.1 0.00 0.00 0.00 56 1010.6
20260504214546 24 48 4.8 14.5 0.00 0.00 0.00 56 1010.1
20260504213646 24 85 3.2 12.9 0.00 0.00 0.00 58 1010.0
20260504213005 24 60 4.8 12.9 0.00 0.00 0.00 57 1010.4
20260504212746 24 72 4.8 12.9 0.00 0.00 0.00 59 1009.9
20260504211846 24 102 4.8 12.9 0.00 0.00 0.00 57 1009.9
20260504211606 23 133 4.8 12.9 0.00 0.00 0.00 57 1010.4
20260504210946 23 75 4.8 12.9 0.00 0.00 0.00 59 1010.2
20260504210046 23 98 4.8 12.9 0.00 0.00 0.00 60 1010.2
20260504210002 23 336 3.2 12.9 0.00 0.00 0.00 60 1010.5
20260504205146 23 74 4.8 16.1 0.00 0.00 0.00 61 1010.2
20260504204639 23 49 3.2 12.9 0.00 0.00 0.00 63 1010.7
20260504204247 23 74 3.2 11.3 0.00 0.00 0.00 61 1010.4
20260504203001 23 105 3.2 9.7 0.00 0.00 0.00 62 1010.8
20260504202446 23 96 3.2 12.9 0.00 0.00 0.00 63 1010.4
20260504201602 23 111 1.6 11.3 0.00 0.00 0.00 63 1010.9
20260504201546 23 88 3.2 9.7 0.00 0.00 0.00 63 1010.5
20260504200647 22 95 3.2 9.7 0.00 0.00 0.00 64 1010.6
20260504200006 22 82 3.2 11.3 0.00 0.00 0.00 66 1011.0
20260504195746 22 94 3.2 9.7 0.00 0.00 0.00 65 1010.6
20260504194847 22 81 3.2 8.0 0.00 0.00 0.00 66 1010.6
20260504194601 22 47 3.2 8.0 0.00 0.00 0.00 65 1011.0
20260504193947 22 93 4.8 12.9 0.00 0.00 0.00 66 1010.5
20260504193046 21 98 3.2 11.3 0.00 0.00 0.00 66 1010.7
20260504193004 21 94 3.2 11.3 0.00 0.00 0.00 67 1011.1
20260504192146 21 91 4.8 12.9 0.00 0.00 0.00 66 1010.8
20260504191602 21 105 3.2 12.9 0.00 0.00 0.00 70 1011.5
20260504191247 21 100 4.8 14.5 0.00 0.00 0.00 70 1011.0
20260504190346 21 89 3.2 9.7 0.00 0.00 0.00 69 1011.1
20260504190008 20 93 1.6 9.7 0.00 0.00 0.00 69 1011.5
20260504184606 20 61 3.2 9.7 0.00 0.00 0.00 72 1011.5
20260504184546 20 30 4.8 9.7 0.00 0.00 0.00 70 1011.1
20260504183647 19 78 4.8 11.3 0.00 0.00 0.00 74 1011.2
20260504183002 18 122 3.2 11.3 0.00 0.00 0.00 73 1011.5
20260504182746 19 80 1.6 11.3 0.00 0.00 0.00 72 1011.0
20260504181503 18 77 1.6 8.0 0.00 0.00 0.00 75 1011.5
20260504180946 18 99 1.6 9.7 0.00 0.00 0.00 78 1011.1
20260504180046 17 91 3.2 9.7 0.00 0.00 0.00 80 1011.2
20260504175146 17 91 3.2 9.7 0.00 0.00 0.00 80 1011.2
20260504174502 16 68 0.0 9.7 0.00 0.00 0.00 80 1011.5
20260504174246 17 69 3.2 9.7 0.00 0.00 0.00 79 1011.1
20260504173346 16 64 1.6 9.7 0.00 0.00 0.00 79 1011.1
20260504173102 16 1 1.6 6.4 0.00 0.00 0.00 80 1011.5
20260504172446 16 18 3.2 8.0 0.00 0.00 0.00 80 1011.1
20260504171547 16 344 3.2 12.9 0.00 0.00 0.00 81 1011.0
20260504171505 16 331 3.2 12.9 0.00 0.00 0.00 82 1011.5
20260504170647 16 356 3.2 9.7 0.00 0.00 0.00 82 1011.1
20260504170103 15 307 3.2 8.0 0.00 0.00 0.00 81 1011.4
20260504160346 14 12 3.2 11.3 0.00 0.00 0.00 85 1010.9
20260504150947 13 7 1.6 8.0 0.00 0.00 0.00 89 1010.3
20260504150106 12 357 1.6 9.7 0.00 0.00 0.00 90 1010.7
20260504140647 9 0 0.0 0.0 0.00 0.00 0.00 100 1009.7
20260504130347 7 0 0.0 0.0 0.00 0.00 0.00 96 1009.0
20260504120107 7 124 0.0 0.0 0.00 0.00 0.00 94 1009.1
20260504110647 8 0 0.0 0.0 0.00 0.00 0.00 94 1008.3
20260504110104 8 124 0.0 0.0 0.00 0.00 0.00 94 1008.8
20260504100347 9 0 0.0 0.0 0.00 0.00 0.00 92 1008.4
20260504100103 8 124 0.0 0.0 0.00 0.00 0.00 92 1008.8
20260504090105 10 124 0.0 0.0 0.00 0.00 0.00 88 1008.7
20260504081547 11 0 0.0 0.0 0.00 0.00 0.00 87 1008.3
20260504081502 11 124 0.0 0.0 0.00 0.00 0.00 87 1008.6
20260504070347 13 0 0.0 0.0 0.00 0.00 0.00 81 1008.1
20260504070107 13 124 0.0 0.0 0.00 0.00 0.00 81 1008.5